TimeACDT,TemperatureF,Dew PointF,Humidity,Sea Level PressureIn,VisibilityMPH,Wind Direction,Wind SpeedMPH,Gust SpeedMPH,PrecipitationIn,Events,Conditions,WindDirDegrees,DateUTC
12:00 AM,61,57,84,29.68,,South,17.3,,,,,190,2013-10-09 13:30:00
12:30 AM,60,57,87,29.68,,South,16.1,,,,,190,2013-10-09 14:00:00
2:30 AM,60,55,78,29.72,,South,11.5,,,,,190,2013-10-09 16:00:00
3:30 AM,59,54,80,29.70,,South,15.0,,,,,180,2013-10-09 17:00:00
5:30 AM,59,54,77,29.70,,South,13.8,,,,,170,2013-10-09 19:00:00
6:30 AM,58,53,80,29.78,,SSW,15.0,,,,,200,2013-10-09 20:00:00
8:30 AM,58,53,78,29.88,,SSW,13.8,,,,,210,2013-10-09 22:00:00
9:00 AM,58,53,76,29.89,,SSW,11.5,,,,,210,2013-10-09 22:30:00
9:30 AM,58,52,76,29.88,,SSW,15.0,,,,,210,2013-10-09 23:00:00
11:30 AM,58,52,74,29.95,,SW,11.5,,,,,230,2013-10-10 01:00:00
12:30 PM,60,51,63,29.94,,SW,9.2,,,,,230,2013-10-10 02:00:00
2:30 PM,62,46,45,29.96,,SW,11.5,,,,,230,2013-10-10 04:00:00
3:00 PM,63,47,45,29.96,,WSW,11.5,,,,Unknown Precipitation,240,2013-10-10 04:30:00
3:30 PM,62,48,50,29.97,,WSW,12.7,,,,,250,2013-10-10 05:00:00
5:30 PM,62,48,50,29.99,,WSW,17.3,,,,,250,2013-10-10 07:00:00
6:00 PM,62,48,49,30.01,,WSW,16.1,,,,,250,2013-10-10 07:30:00
6:30 PM,60,49,58,30.02,,WSW,13.8,,,,,250,2013-10-10 08:00:00
8:30 PM,56,43,52,30.09,,WSW,12.7,,,,,250,2013-10-10 10:00:00
9:00 PM,56,43,50,30.09,,WSW,11.5,,,,,250,2013-10-10 10:30:00
9:30 PM,55,42,50,30.10,,WSW,9.2,,,,,240,2013-10-10 11:00:00
11:30 PM,57,46,56,30.12,,WSW,9.2,,,,,240,2013-10-10 13:00:00